Peosta, IA

4:40 AM CST on February 28, 2017 (GMT -0600)
Dubuque Regional

Weather History for KDBQ - January, 2014

Change the Weather History Date:

Sunday, January 12, 2014

  Actual Average Record
Temperature  
Mean Temperature 31 °F 19 °F  
Max Temperature 38 °F 26 °F 51 °F (2006)
Min Temperature 23 °F 11 °F -26 °F (1912)
Degree Days  
Heating Degree Days 34 46  
Month to date heating degree days 676 552  
Since 1 July heating degree days 3801 3362  
Cooling Degree Days 0 0  
Month to date cooling degree days 0 0  
Year to date cooling degree days 0 0  
Moisture  
Dew Point 28 °F    
Average Humidity 85    
Maximum Humidity 100    
Minimum Humidity 70    
Precipitation  
Precipitation 0.00 in 0.04 in 3.04 in (1960)
Month to date precipitation 0.12 0.46  
Year to date precipitation 0.12 0.46  
Snow  
Snow 0.00 in 0.30 in - ()
Month to date snowfall 0.9 3.8  
Since 1 July snowfall 23.2 18.4  
Snow Depth 5.00 in    
Sea Level Pressure  
Sea Level Pressure 29.64 in    
Wind  
Wind Speed 14 mph (SSW)    
Max Wind Speed 32 mph    
Max Gust Speed 40 mph    
Visibility 9 miles    
Events      
T = Trace of Precipitation, MM = Missing Value Source: NWS Daily Summary

Daily Weather History Graph

Daily Weather History Graph

Search for Another Location

Airport or City:

Trip Planner

Search our weather history database for the weather conditions in past years. The results will help you decide how hot, cold, wet, or windy it might be!

Date:

Astronomy

Jan. 12, 2014 Rise Set
Actual Time 7:30 AM CST 4:52 PM CST
Civil Twilight 6:59 AM CST 5:23 PM CST
Nautical Twilight 6:24 AM CST 5:58 PM CST
Astronomical Twilight 5:50 AM CST 6:31 PM CST
Moon 2:20 PM CST (1/12) 4:29 AM CST (1/12)
Length of Visible Light 10h 23m
Length of Day
9h 21m
Waxing Gibbous, 90% of the Moon is Illuminated
Jan 12
Waxing Gibbous
Jan 15
Full
Jan 23
Last Quarter
Jan 30
New
Feb 6
First Quarter

Hourly Weather History & Observations

Time (CST) Temp. Windchill Dew Point Humidity Pressure Visibility Wind Dir Wind Speed Gust Speed Precip Events Conditions
12:53 AM 27.0 °F 17.3 °F 26.1 °F 96% 29.81 in 9.0 mi WSW 10.4 mph - N/A   Overcast
1:42 AM 26.1 °F 14.5 °F 26.1 °F 100% 29.77 in 7.0 mi SW 13.8 mph - N/A   Overcast
1:53 AM 26.1 °F 14.0 °F 26.1 °F 100% 29.81 in 8.0 mi SW 15.0 mph - N/A   Overcast
2:53 AM 25.0 °F 14.8 °F 25.0 °F 100% 29.81 in 3.0 mi SSW 10.4 mph - N/A   Overcast
3:53 AM 25.0 °F 13.6 °F 25.0 °F 100% 29.78 in 3.0 mi South 12.7 mph - N/A   Overcast
4:53 AM 24.1 °F 12.5 °F 23.0 °F 96% 29.77 in 7.0 mi South 12.7 mph - N/A   Mostly Cloudy
5:04 AM 24.1 °F 12.5 °F 24.1 °F 100% 29.72 in 7.0 mi South 12.7 mph - N/A   Scattered Clouds
5:53 AM 23.0 °F 11.1 °F 23.0 °F 100% 29.74 in 5.0 mi South 12.7 mph - N/A   Partly Cloudy
6:53 AM 24.1 °F 11.5 °F 23.0 °F 96% 29.73 in 7.0 mi South 15.0 mph - N/A   Clear
7:53 AM 25.0 °F 12.6 °F 24.1 °F 96% 29.71 in 7.0 mi South 15.0 mph - N/A   Clear
8:53 AM 28.0 °F 14.3 °F 26.1 °F 92% 29.68 in 10.0 mi South 21.9 mph - N/A   Clear
9:53 AM 32.0 °F 18.1 °F 27.0 °F 82% 29.66 in 10.0 mi South 27.6 mph 35.7 mph N/A   Clear
10:53 AM 35.1 °F 23.0 °F 28.0 °F 76% 29.63 in 10.0 mi South 24.2 mph 33.4 mph N/A   Clear
11:53 AM 37.0 °F 24.7 °F 28.0 °F 70% 29.55 in 10.0 mi South 28.8 mph 36.8 mph N/A   Clear
12:53 PM 37.9 °F 27.1 °F 28.9 °F 70% 29.53 in 10.0 mi South 23.0 mph 33.4 mph N/A   Clear
1:53 PM 37.9 °F 28.9 °F 30.0 °F 73% 29.54 in 10.0 mi South 16.1 mph - N/A   Clear
2:53 PM 37.0 °F 28.9 °F 30.0 °F 76% 29.55 in 10.0 mi South 12.7 mph - N/A   Clear
3:53 PM 37.0 °F 28.9 °F 30.9 °F 79% 29.54 in 10.0 mi South 12.7 mph - N/A   Clear
4:53 PM 36.0 °F 28.5 °F 30.9 °F 82% 29.56 in 10.0 mi SSW 10.4 mph - N/A   Clear
5:53 PM 37.0 °F 28.5 °F 32.0 °F 82% 29.58 in 10.0 mi South 13.8 mph - N/A   Clear
6:53 PM 35.1 °F 28.6 °F 30.9 °F 85% 29.58 in 10.0 mi South 8.1 mph - N/A   Clear
7:53 PM 36.0 °F 28.5 °F 30.9 °F 82% 29.57 in 10.0 mi SSW 10.4 mph - N/A   Clear
8:53 PM 34.0 °F 26.6 °F 30.9 °F 89% 29.58 in 10.0 mi SSW 9.2 mph - N/A   Clear
9:53 PM 33.1 °F 26.9 °F 30.0 °F 89% 29.57 in 10.0 mi South 6.9 mph - N/A   Clear
10:53 PM 30.9 °F - 28.9 °F 92% 29.57 in 10.0 mi Calm Calm - N/A   Partly Cloudy
11:53 PM 32.0 °F - 30.9 °F 96% 29.57 in 10.0 mi North - - N/A   Overcast